Port Hardy, British Columbia

7:39 PM PDT on October 16, 2017 (GMT -0700)
Port Hardy

Weather History for CYZT - May, 2013

Change the Weather History Date:

Friday, May 24, 2013

  Actual Average Record
Temperature  
Mean Temperature 52 °F -  
Max Temperature 58 °F 59 °F 71 °F (2008)
Min Temperature 46 °F 45 °F 41 °F (2000)
Degree Days  
Heating Degree Days 13    
Growing Degree Days 2 (Base 50)    
Moisture  
Dew Point 47 °F    
Average Humidity 91    
Maximum Humidity 100    
Minimum Humidity 63    
Precipitation  
Precipitation 0.20 in 0.10 in - ()
Sea Level Pressure  
Sea Level Pressure 30.02 in    
Wind  
Wind Speed 3 mph ()    
Max Wind Speed 10 mph    
Max Gust Speed -    
Visibility 15.1 miles    
Events Rain    
Averages and records for this station are not official NWS values.
T = Trace of Precipitation, MM = Missing Value Source: Averaged Metar Reports

Daily Weather History Graph

Daily Weather History Graph

Search for Another Location

Airport or City:

Trip Planner

Search our weather history database for the weather conditions in past years. The results will help you decide how hot, cold, wet, or windy it might be!

Date:

Astronomy

May. 24, 2013 Rise Set
Actual Time 5:29 AM PDT 9:24 PM PDT
Civil Twilight 4:46 AM PDT 10:06 PM PDT
Nautical Twilight 3:47 AM PDT 11:06 PM PDT
Astronomical Twilight 2:04 AM PDT 12:55 AM PDT
Moon 9:10 PM PDT (5/24) 5:12 AM PDT (5/24)
Length of Visible Light 17h 20m
Length of Day
15h 55m
Full, 100% of the Moon is Illuminated
May 24
Full
May 24
Full
May 31
Last Quarter
Jun 8
New
Jun 16
First Quarter

Hourly Weather History & Observations

Time (PDT) Temp. Dew Point Humidity Pressure Visibility Wind Dir Wind Speed Gust Speed Precip Events Conditions
12:00 AM 48.2 °F 48.2 °F 100% 30.02 in 15.0 mi SSW 2.3 mph - N/A Rain Light Rain
1:00 AM 48.2 °F 46.4 °F 93% 30.01 in 12.0 mi Calm Calm - N/A Rain Light Rain
2:00 AM 46.4 °F 46.4 °F 100% 30.01 in 12.0 mi Calm Calm - N/A Rain Light Rain
3:00 AM 46.4 °F 46.4 °F 100% 30.00 in 15.0 mi Calm Calm - N/A Rain Light Rain
4:00 AM 46.4 °F 46.4 °F 100% 30.00 in 15.0 mi Calm Calm - N/A Rain Light Rain
5:00 AM 47 °F 46 °F 96% 29.99 in 12 mi Calm Calm - - Rain Light Rain
5:00 AM 46.4 °F 46.4 °F 100% 29.99 in 12.0 mi Calm Calm - N/A Rain Light Rain
6:00 AM 46.4 °F 46.4 °F 100% 29.99 in 10.0 mi Calm Calm - N/A Rain Light Rain
7:00 AM 48.2 °F 46.4 °F 93% 30.00 in 8.0 mi SE 2.3 mph - N/A Rain Light Rain
7:38 AM - - N/A% - 10.0 mi South 2.3 mph - N/A Rain Light Rain
8:00 AM 48.2 °F 48.2 °F 100% 29.99 in 8.0 mi SE 4.6 mph - N/A Rain Light Rain
9:00 AM 48.2 °F 48.2 °F 100% 30.01 in 8.0 mi East 5.8 mph - N/A Rain Light Rain
10:00 AM 48.2 °F 48.2 °F 100% 30.01 in 8.0 mi ESE 5.8 mph - N/A Rain Light Rain
11:00 AM 50 °F 48 °F 92% 30.00 in 15 mi Calm Calm - - Rain Light Rain
11:00 AM 50.0 °F 48.2 °F 94% 30.00 in 15.0 mi Calm Calm - N/A Rain Light Rain
11:25 AM - - N/A% - 15.0 mi ENE 5.8 mph - N/A   Mostly Cloudy
12:00 PM 51.8 °F 48.2 °F 88% 30.02 in 20.0 mi ENE 8.1 mph - N/A   Mostly Cloudy
1:00 PM 51.8 °F 48.2 °F 88% 30.01 in 20.0 mi East 4.6 mph - N/A   Mostly Cloudy
2:00 PM 51.8 °F 48.2 °F 88% 30.00 in 20.0 mi NE 6.9 mph - N/A   Mostly Cloudy
3:00 PM 55.4 °F 48.2 °F 77% 30.01 in 20.0 mi NE 3.5 mph - N/A   Mostly Cloudy
4:00 PM 59.0 °F 46.4 °F 63% 30.01 in 20.0 mi West 6.9 mph - N/A   Mostly Cloudy
5:00 PM 53 °F 48 °F 76% 30.03 in 19 mi North 10.4 mph - -   Partly Cloudy
5:00 PM 53.6 °F 48.2 °F 82% 30.03 in 20.0 mi NNW 10.4 mph - N/A   Mostly Cloudy
6:00 PM 51.8 °F 48.2 °F 88% 30.04 in 20.0 mi NNW 8.1 mph - N/A   Mostly Cloudy
7:00 PM 51.8 °F 48.2 °F 88% 30.04 in 20.0 mi NNW 9.2 mph - N/A   Mostly Cloudy
8:00 PM 50.0 °F 46.4 °F 87% 30.04 in 20.0 mi NW 8.1 mph - N/A   Mostly Cloudy
9:00 PM 50.0 °F 46.4 °F 87% 30.05 in 20.0 mi NNW 8.1 mph - N/A   Mostly Cloudy
10:00 PM 48.2 °F 44.6 °F 87% 30.05 in 15.0 mi West 4.6 mph - N/A   Overcast
11:00 PM 48 °F 45 °F 87% 30.05 in 15 mi WNW 3.5 mph - -   Overcast
11:00 PM 48.2 °F 44.6 °F 87% 30.05 in 15.0 mi WNW 3.5 mph - N/A   Overcast